{"data":{"norad_id":69196,"epoch":"2026-09-20T00:44:43.399968Z","epoch_age_seconds":67552,"freshness":"FRESH","line1":"1 69196U 26114Q   26263.03105787  .00011265  00000+0  34391-3 0  9992","line2":"2 69196  53.1570 115.9459 0001146  84.0369 276.0764 15.34410372 19372","mean_motion":15.34410372,"eccentricity":0.0001146,"inclination_deg":53.157,"raan_deg":115.9459,"arg_perigee_deg":84.0369,"mean_anomaly_deg":276.0764,"bstar":0.00034391,"rev_number":1937,"period_min":93.847123708051,"perigee_km":461.88845585227,"apogee_km":463.45636936965,"semimajor_km":6840.809412611,"source":"CELESTRAK","updated_at":"2026-09-20T09:00:44.098452Z"}}